GW5874 Weather Reports


Display with metric or nautical units.
time (UTC)temp
F
wind
direction
speed
MPH
gust
MPH
rain 1hr
in
rain 24hr
in
rain mn
in
humidity
%
barometer
mb
20260510180512 69 299 2.0 3.0 0.00 0.00 0.00 59 1019.3
20260510180009 69 159 1.0 1.0 0.00 0.00 0.00 61 1019.2
20260510175504 69 161 3.0 4.0 0.00 0.00 0.00 60 1018.9
20260510175000 69 157 5.0 7.0 0.00 0.00 0.00 60 1018.8
20260510174458 68 347 2.0 3.0 0.00 0.00 0.00 64 1018.7
20260510173955 68 189 4.0 5.0 0.00 0.00 0.00 63 1018.9
20260510173451 68 68 3.0 4.0 0.00 0.00 0.00 62 1018.9
20260510172947 69 59 3.0 4.0 0.00 0.00 0.00 64 1018.8
20260510172443 69 81 3.0 4.0 0.00 0.00 0.00 61 1018.7
20260510171940 69 259 3.0 4.0 0.00 0.00 0.00 61 1018.9
20260510171437 68 256 2.0 3.0 0.00 0.00 0.00 63 1018.6
20260510170933 68 346 4.0 5.0 0.00 0.00 0.00 62 1019.0
20260510170430 68 273 1.0 1.0 0.00 0.00 0.00 65 1018.7
20260510165925 68 82 4.0 7.0 0.00 0.00 0.00 64 1018.8
20260510165422 68 225 2.0 3.0 0.00 0.00 0.00 66 1018.7
20260510164919 69 306 1.0 3.0 0.00 0.00 0.00 66 1018.7
20260510164416 68 83 2.0 3.0 0.00 0.00 0.00 69 1018.9
20260510163911 68 244 3.0 4.0 0.00 0.00 0.00 68 1018.5
20260510163408 68 107 10.0 16.0 0.00 0.00 0.00 68 1018.4
20260510162907 68 310 5.0 7.0 0.00 0.00 0.00 68 1018.6
20260510162405 67 261 0.0 1.0 0.00 0.00 0.00 70 1018.4
20260510161901 67 82 1.0 3.0 0.00 0.00 0.00 72 1018.4
20260510161356 66 23 3.0 5.0 0.00 0.00 0.00 71 1018.2
20260510160854 66 268 0.0 1.0 0.00 0.00 0.00 72 1017.9
20260510160351 65 341 2.0 4.0 0.00 0.00 0.00 72 1018.1
20260510155849 65 73 1.0 3.0 0.00 0.00 0.00 72 1018.2
20260510155347 66 62 2.0 3.0 0.00 0.00 0.00 72 1018.1
20260510154843 66 160 2.0 3.0 0.00 0.00 0.00 72 1017.9
20260510154339 66 190 0.0 1.0 0.00 0.00 0.00 73 1017.7
20260510153833 66 230 0.0 1.0 0.00 0.00 0.00 73 1017.6
20260510153329 65 67 5.0 8.0 0.00 0.00 0.00 71 1017.5
20260510152826 65 309 2.0 3.0 0.00 0.00 0.00 74 1017.4
20260510152323 65 236 2.0 3.0 0.00 0.00 0.00 73 1017.2
20260510151820 66 115 4.0 5.0 0.00 0.00 0.00 72 1017.4
20260510151318 66 306 3.0 4.0 0.00 0.00 0.00 72 1017.2
20260510150814 66 118 4.0 5.0 0.00 0.00 0.00 73 1017.2
20260510150309 66 301 5.0 8.0 0.00 0.00 0.00 73 1017.1
20260510145806 66 167 2.0 4.0 0.00 0.00 0.00 73 1017.2
20260510145305 66 228 5.0 7.0 0.00 0.00 0.00 74 1017.1
20260510144759 65 273 1.0 1.0 0.00 0.00 0.00 75 1017.1
20260510144256 65 306 0.0 0.0 0.00 0.00 0.00 78 1017.0
20260510143755 65 231 0.0 1.0 0.00 0.00 0.00 79 1017.3
20260510143251 65 283 0.0 1.0 0.00 0.00 0.00 77 1017.4
20260510142748 65 1 0.0 0.0 0.00 0.00 0.00 77 1017.6
20260510142245 65 302 1.0 1.0 0.00 0.00 0.00 78 1017.5
20260510141742 65 273 0.0 0.0 0.00 0.00 0.00 76 1017.5
20260510141240 65 242 0.0 1.0 0.00 0.00 0.00 77 1017.5
20260510140737 66 98 0.0 0.0 0.00 0.00 0.00 77 1017.4
20260510140232 65 260 0.0 0.0 0.00 0.00 0.00 76 1017.2
20260510135732 65 285 0.0 0.0 0.00 0.00 0.00 78 1017.4
20260510135227 65 257 0.0 0.0 0.00 0.00 0.00 77 1017.4
20260510134725 65 245 0.0 0.0 0.00 0.00 0.00 78 1017.3
20260510134222 65 320 2.0 3.0 0.00 0.00 0.00 77 1017.0
20260510133718 65 241 0.0 0.0 0.00 0.00 0.00 76 1017.0
20260510133214 65 332 0.0 1.0 0.00 0.00 0.00 77 1017.0
20260510132710 65 280 3.0 4.0 0.00 0.00 0.00 76 1017.0
20260510132208 65 331 0.0 0.0 0.00 0.00 0.00 78 1016.9
20260510131705 66 258 0.0 0.0 0.00 0.00 0.00 77 1016.8
20260510131203 66 276 1.0 1.0 0.00 0.00 0.00 77 1016.7
20260510130659 66 285 0.0 0.0 0.00 0.00 0.00 79 1016.5
20260510130156 65 231 0.0 0.0 0.00 0.00 0.00 83 1016.3
20260510125652 62 296 0.0 0.0 0.00 0.00 0.00 86 1016.1
20260510125148 61 313 0.0 0.0 0.00 0.00 0.00 89 1015.9
20260510124646 60 132 0.0 0.0 0.00 0.00 0.00 90 1015.8
20260510124142 60 114 1.0 1.0 0.00 0.00 0.00 91 1015.8
20260510123637 59 115 0.0 0.0 0.00 0.00 0.00 95 1015.7
20260510123134 59 281 0.0 0.0 0.00 0.00 0.00 97 1015.7
20260510122630 58 280 0.0 0.0 0.00 0.00 0.00 97 1015.7
20260510122126 56 280 0.0 0.0 0.00 0.00 0.00 97 1015.7
20260510121623 55 281 0.0 0.0 0.00 0.00 0.00 97 1015.5
20260510121120 55 281 0.0 0.0 0.00 0.00 0.00 96 1015.4
20260510120618 55 263 0.0 0.0 0.00 0.00 0.00 96 1015.5
20260510120113 55 309 0.0 1.0 0.00 0.00 0.00 96 1015.4
20260510115610 55 241 0.0 0.0 0.00 0.00 0.00 96 1015.2
20260510115108 55 259 0.0 0.0 0.00 0.00 0.00 96 1015.2
20260510114603 55 313 1.0 1.0 0.00 0.00 0.00 96 1015.1
20260510114100 54 255 0.0 0.0 0.00 0.00 0.00 96 1014.8
20260510113554 54 254 0.0 0.0 0.00 0.00 0.00 96 1014.9
20260510113053 55 255 0.0 0.0 0.00 0.00 0.00 95 1014.5
20260510112549 55 211 0.0 0.0 0.00 0.00 0.00 95 1014.5
20260510112045 55 337 1.0 1.0 0.00 0.00 0.00 95 1014.6
20260510111542 55 268 0.0 1.0 0.00 0.00 0.00 95 1014.5
20260510111038 55 292 0.0 0.0 0.00 0.00 0.00 95 1014.6
20260510110534 55 244 0.0 0.0 0.00 0.00 0.00 94 1014.4
20260510110031 55 253 0.0 0.0 0.00 0.00 0.00 94 1014.4
20260510105526 56 254 0.0 0.0 0.00 0.00 0.00 94 1014.5
20260510105021 56 277 0.0 1.0 0.00 0.00 0.00 94 1014.6
20260510104518 55 277 0.0 0.0 0.00 0.00 0.00 94 1014.7
20260510104014 56 276 0.0 0.0 0.00 0.00 0.00 94 1014.5
20260510103512 56 276 0.0 0.0 0.00 0.00 0.00 93 1014.4
20260510103008 56 213 1.0 1.0 0.00 0.00 0.00 93 1014.4
20260510102504 56 248 0.0 1.0 0.00 0.00 0.00 93 1014.6
20260510102000 56 324 1.0 1.0 0.00 0.00 0.00 93 1014.3
20260510101458 57 281 0.0 0.0 0.00 0.00 0.00 92 1014.4
20260510100956 57 276 0.0 1.0 0.00 0.00 0.00 92 1014.4
20260510100452 57 301 0.0 0.0 0.00 0.00 0.00 92 1014.5
20260510095948 57 300 0.0 0.0 0.00 0.00 0.00 91 1014.6
20260510095444 57 250 0.0 0.0 0.00 0.00 0.00 90 1014.4
20260510094943 58 334 1.0 1.0 0.00 0.00 0.00 89 1014.2
20260510094438 58 328 1.0 1.0 0.00 0.00 0.00 89 1014.5
20260510093934 58 299 0.0 0.0 0.00 0.00 0.00 88 1014.4
20260510093430 59 227 0.0 0.0 0.00 0.00 0.00 88 1014.4
20260510092927 59 293 0.0 1.0 0.00 0.00 0.00 87 1014.2
20260510092425 59 271 0.0 0.0 0.00 0.00 0.00 87 1014.2
20260510091924 59 247 0.0 0.0 0.00 0.00 0.00 86 1014.1
20260510091421 59 237 1.0 1.0 0.00 0.00 0.00 86 1013.8
20260510090918 59 168 0.0 1.0 0.00 0.00 0.00 87 1013.9
20260510090414 60 244 0.0 0.0 0.00 0.00 0.00 86 1013.8
20260510085910 59 281 0.0 0.0 0.00 0.00 0.00 85 1013.5
20260510085405 58 296 0.0 1.0 0.00 0.00 0.00 91 1013.4
20260510084900 57 227 0.0 0.0 0.00 0.00 0.00 92 1013.2
20260510084359 58 227 0.0 0.0 0.00 0.00 0.00 93 1013.4
20260510083855 58 77 0.0 0.0 0.00 0.00 0.00 94 1013.4
20260510083352 58 259 0.0 0.0 0.00 0.00 0.00 94 1013.3
20260510082847 57 322 1.0 1.0 0.00 0.00 0.00 95 1013.2
20260510082345 57 306 2.0 3.0 0.00 0.00 0.00 95 1013.2
20260510081844 57 266 0.0 0.0 0.00 0.00 0.00 95 1013.0
20260510081340 57 262 0.0 0.0 0.00 0.00 0.00 95 1013.2
20260510080837 57 237 0.0 0.0 0.00 0.00 0.00 95 1012.7
20260510080330 57 217 0.0 0.0 0.00 0.00 0.00 95 1012.5
20260510075828 57 272 0.0 0.0 0.00 0.00 0.00 95 1012.2
20260510075325 57 276 0.0 0.0 0.00 0.00 0.00 94 1012.4
20260510074822 57 276 0.0 0.0 0.00 0.00 0.00 94 1012.2
20260510074319 57 248 0.0 0.0 0.00 0.00 0.00 94 1012.4
20260510073815 57 247 0.0 0.0 0.00 0.00 0.00 94 1012.4
20260510073311 58 319 0.0 0.0 0.00 0.00 0.00 94 1012.3
20260510072807 58 319 1.0 1.0 0.00 0.00 0.00 94 1012.6
20260510072306 58 320 1.0 1.0 0.00 0.00 0.00 94 1012.6
20260510071800 57 318 2.0 3.0 0.00 0.00 0.00 95 1012.5
20260510071257 57 267 0.0 0.0 0.00 0.00 0.00 95 1012.5
20260510070756 57 246 0.0 0.0 0.00 0.00 0.00 94 1012.4
20260510070253 57 258 1.0 1.0 0.00 0.00 0.00 94 1012.3
20260510065752 57 270 1.0 1.0 0.00 0.00 0.00 94 1012.4
20260510065249 57 263 0.0 0.0 0.00 0.00 0.00 94 1012.3
20260510064746 57 230 0.0 0.0 0.00 0.00 0.00 94 1012.5
20260510064244 57 230 0.0 0.0 0.00 0.00 0.00 94 1012.8
20260510063739 57 230 0.0 0.0 0.00 0.00 0.00 94 1012.7
20260510063236 57 230 0.0 0.0 0.00 0.00 0.00 94 1013.2
20260510062732 57 230 0.0 0.0 0.00 0.00 0.00 94 1013.1
20260510062229 57 230 0.0 0.0 0.00 0.00 0.00 94 1013.3
20260510061724 57 230 0.0 1.0 0.00 0.00 0.00 94 1013.5
20260510061222 57 263 0.0 0.0 0.00 0.00 0.00 94 1013.3
20260510060718 57 263 0.0 0.0 0.00 0.00 0.00 94 1013.4
20260510060214 57 262 0.0 0.0 0.00 0.00 0.00 94 1013.3
20260510055711 57 262 0.0 0.0 0.00 0.00 0.00 94 1013.4
20260510055209 57 262 0.0 0.0 0.00 0.00 0.00 94 1013.4
20260510054704 57 262 0.0 0.0 0.00 0.00 0.00 94 1013.5
20260510054200 57 279 0.0 0.0 0.00 0.00 0.00 94 1013.6
20260510053700 57 293 1.0 1.0 0.00 0.00 0.00 94 1013.5
20260510053157 57 231 0.0 0.0 0.00 0.00 0.00 94 1013.7
20260510052652 57 231 0.0 0.0 0.00 0.00 0.00 94 1013.5
20260510052148 57 230 0.0 0.0 0.00 0.00 0.00 93 1013.7
20260510051644 57 231 0.0 0.0 0.00 0.00 0.00 93 1013.7
20260510051141 57 234 0.0 0.0 0.00 0.00 0.00 93 1013.5
20260510050638 57 250 0.0 0.0 0.00 0.00 0.00 93 1013.3
20260510050136 57 264 0.0 0.0 0.00 0.00 0.00 92 1013.5
20260510045632 57 247 0.0 0.0 0.00 0.00 0.00 92 1013.3
20260510045129 57 286 0.0 0.0 0.00 0.00 0.00 92 1013.2
20260510044625 57 282 0.0 0.0 0.00 0.00 0.00 92 1013.3
20260510044122 57 278 1.0 1.0 0.00 0.00 0.00 92 1013.0
20260510043618 57 262 0.0 0.0 0.00 0.00 0.00 92 1013.1
20260510043115 57 261 0.0 0.0 0.00 0.00 0.00 92 1013.2
20260510042613 57 299 0.0 0.0 0.00 0.00 0.00 91 1013.3
20260510042108 57 263 0.0 0.0 0.00 0.00 0.00 91 1012.8
20260510041605 57 263 0.0 0.0 0.00 0.00 0.00 91 1013.1
20260510041103 57 263 0.0 0.0 0.00 0.00 0.00 91 1012.8
20260510040600 57 305 0.0 0.0 0.00 0.00 0.00 91 1012.8
20260510040055 57 257 0.0 0.0 0.00 0.00 0.00 91 1013.1
20260510035552 57 292 0.0 0.0 0.00 0.00 0.00 91 1013.0
20260510035051 57 301 0.0 0.0 0.00 0.00 0.00 91 1012.5
20260510034550 57 244 0.0 0.0 0.00 0.00 0.00 91 1013.0
20260510034046 57 244 0.0 0.0 0.00 0.00 0.00 91 1012.6
20260510033542 57 244 0.0 0.0 0.00 0.00 0.00 91 1012.5
20260510033041 57 245 0.0 0.0 0.00 0.00 0.00 90 1012.3
20260510032537 57 245 0.0 0.0 0.00 0.00 0.00 89 1012.4
20260510032032 57 245 0.0 0.0 0.00 0.00 0.00 89 1012.2
20260510031527 57 244 0.0 0.0 0.00 0.00 0.00 88 1012.2
20260510031023 58 244 0.0 0.0 0.00 0.00 0.00 88 1012.1
20260510030519 58 215 0.0 0.0 0.00 0.00 0.00 88 1012.2
20260510030017 58 217 0.0 0.0 0.00 0.00 0.00 88 1012.0
20260510025513 59 255 0.0 0.0 0.00 0.00 0.00 89 1011.9
20260510025011 59 255 0.0 0.0 0.00 0.00 0.00 89 1011.9
20260510024508 59 255 0.0 0.0 0.00 0.00 0.00 89 1011.9
20260510024004 59 255 0.0 0.0 0.00 0.00 0.00 88 1011.8
20260510023500 59 255 0.0 0.0 0.00 0.00 0.00 88 1011.8
20260510022957 60 255 0.0 0.0 0.00 0.00 0.00 88 1011.6
20260510022456 60 255 0.0 0.0 0.00 0.00 0.00 88 1011.6
20260510021955 60 255 0.0 0.0 0.00 0.00 0.00 87 1011.3
20260510021453 60 255 0.0 0.0 0.00 0.00 0.00 87 1011.2
20260510020950 61 255 0.0 0.0 0.00 0.00 0.00 87 1011.0
20260510020444 61 255 0.0 0.0 0.00 0.00 0.00 86 1011.1
20260510015940 62 255 0.0 0.0 0.00 0.00 0.00 86 1010.8
20260510015436 62 255 0.0 0.0 0.00 0.00 0.00 85 1010.8
20260510014931 62 255 0.0 0.0 0.00 0.00 0.00 85 1010.8
20260510014429 63 254 0.0 0.0 0.00 0.00 0.00 85 1010.5
20260510013926 63 255 0.0 0.0 0.00 0.00 0.00 84 1010.4
20260510013420 64 255 0.0 0.0 0.00 0.00 0.00 82 1010.4
20260510012916 64 255 0.0 0.0 0.00 0.00 0.00 81 1010.3
20260510012411 65 255 0.0 0.0 0.00 0.00 0.00 80 1010.2
20260510011906 66 255 0.0 0.0 0.00 0.00 0.00 79 1010.1
20260510011401 66 255 0.0 0.0 0.00 0.00 0.00 77 1010.0
20260510010858 67 255 0.0 0.0 0.00 0.00 0.00 76 1009.7
20260510010355 68 255 0.0 0.0 0.00 0.00 0.00 74 1009.9
20260510005852 68 255 0.0 0.0 0.00 0.00 0.00 72 1009.6
20260510005348 69 256 0.0 0.0 0.00 0.00 0.00 71 1009.7
20260510004846 69 256 0.0 0.0 0.00 0.00 0.00 73 1009.7
20260510004343 70 255 0.0 0.0 0.00 0.00 0.00 72 1009.4
20260510003841 71 256 0.0 0.0 0.00 0.00 0.00 70 1009.7
20260510003338 72 255 0.0 0.0 0.00 0.00 0.00 67 1009.4
20260510002836 73 255 0.0 0.0 0.00 0.00 0.00 64 1009.5
20260510002333 73 274 0.0 0.0 0.00 0.00 0.00 60 1009.5
20260510001830 74 276 0.0 0.0 0.00 0.00 0.00 57 1009.4
20260510001328 75 276 0.0 0.0 0.00 0.00 0.00 55 1009.5
20260510000824 76 276 0.0 0.0 0.00 0.00 0.00 50 1009.4
20260510000322 76 276 0.0 0.0 0.00 0.00 0.00 48 1009.6
20260509235819 77 277 0.0 0.0 0.00 0.00 0.00 47 1009.4
20260509235315 78 278 1.0 1.0 0.00 0.00 0.00 45 1009.7
20260509234811 79 277 0.0 0.0 0.00 0.00 0.00 44 1009.6
20260509234308 80 276 0.0 0.0 0.00 0.00 0.00 43 1009.5
20260509233806 80 282 0.0 0.0 0.00 0.00 0.00 42 1009.7
20260509233303 83 282 0.0 0.0 0.00 0.00 0.00 39 1009.9
20260509232759 85 279 0.0 0.0 0.00 0.00 0.00 33 1009.7
20260509232257 86 279 0.0 0.0 0.00 0.00 0.00 37 1009.7
20260509231753 86 279 0.0 0.0 0.00 0.00 0.00 39 1009.9
20260509231250 86 279 0.0 0.0 0.00 0.00 0.00 34 1009.7
20260509230748 85 283 0.0 1.0 0.00 0.00 0.00 40 1009.9
20260509230244 83 265 0.0 0.0 0.00 0.00 0.00 44 1009.7
20260509225739 80 286 0.0 0.0 0.00 0.00 0.00 41 1009.7
20260509225236 80 287 0.0 0.0 0.00 0.00 0.00 40 1009.9
20260509224731 81 276 0.0 0.0 0.00 0.00 0.00 34 1009.9
20260509224229 82 283 1.0 1.0 0.00 0.00 0.00 40 1009.9
20260509223725 81 283 0.0 0.0 0.00 0.00 0.00 44 1009.7
20260509223222 81 279 0.0 0.0 0.00 0.00 0.00 42 1010.0
20260509222719 82 272 0.0 0.0 0.00 0.00 0.00 39 1009.9
20260509222214 82 267 0.0 1.0 0.00 0.00 0.00 37 1010.0
20260509221711 83 271 0.0 1.0 0.00 0.00 0.00 41 1010.1
20260509221207 83 273 0.0 0.0 0.00 0.00 0.00 37 1009.9
20260509220703 84 273 0.0 0.0 0.00 0.00 0.00 35 1010.1
20260509220159 86 276 0.0 0.0 0.00 0.00 0.00 33 1009.9
20260509215655 84 273 0.0 0.0 0.00 0.00 0.00 36 1010.2
20260509215152 85 286 1.0 1.0 0.00 0.00 0.00 33 1010.0
20260509214649 83 285 0.0 1.0 0.00 0.00 0.00 31 1010.1
20260509214146 81 257 0.0 0.0 0.00 0.00 0.00 34 1010.1
20260509213643 81 241 1.0 1.0 0.00 0.00 0.00 35 1010.1
20260509213138 83 305 1.0 3.0 0.00 0.00 0.00 35 1010.1
20260509212636 84 266 1.0 1.0 0.00 0.00 0.00 37 1009.9
20260509212133 85 270 1.0 1.0 0.00 0.00 0.00 40 1010.1
20260509211629 84 259 2.0 3.0 0.00 0.00 0.00 34 1010.1
20260509211126 86 217 4.0 4.0 0.00 0.00 0.00 32 1010.3
20260509210622 86 270 0.0 0.0 0.00 0.00 0.00 36 1010.2
20260509210120 84 269 1.0 1.0 0.00 0.00 0.00 37 1010.4
20260509205614 84 261 0.0 1.0 0.00 0.00 0.00 33 1010.4
20260509205109 84 284 0.0 0.0 0.00 0.00 0.00 33 1010.6
20260509204605 85 237 2.0 3.0 0.00 0.00 0.00 37 1010.6
20260509204102 84 263 0.0 1.0 0.00 0.00 0.00 41 1010.7
20260509203558 84 329 2.0 3.0 0.00 0.00 0.00 32 1010.6
20260509203057 83 290 2.0 3.0 0.00 0.00 0.00 37 1010.8
20260509202556 83 299 2.0 3.0 0.00 0.00 0.00 37 1010.8
20260509202052 83 268 0.0 0.0 0.00 0.00 0.00 32 1010.8
20260509201547 83 278 2.0 3.0 0.00 0.00 0.00 35 1010.8
20260509201045 84 217 3.0 4.0 0.00 0.00 0.00 34 1010.8
20260509200544 82 280 0.0 0.0 0.00 0.00 0.00 39 1010.7
20260509200042 82 295 0.0 0.0 0.00 0.00 0.00 34 1010.8
20260509195537 83 278 0.0 1.0 0.00 0.00 0.00 34 1010.8
20260509195037 83 261 2.0 3.0 0.00 0.00 0.00 36 1011.0
20260509194532 83 267 2.0 3.0 0.00 0.00 0.00 39 1011.0
20260509194030 82 230 1.0 1.0 0.00 0.00 0.00 33 1011.0
20260509193530 82 241 0.0 0.0 0.00 0.00 0.00 34 1011.0
20260509193027 83 225 3.0 4.0 0.00 0.00 0.00 35 1011.1
20260509192524 84 256 1.0 1.0 0.00 0.00 0.00 37 1011.1
20260509192019 83 269 0.0 0.0 0.00 0.00 0.00 38 1011.3
20260509191513 83 275 0.0 1.0 0.00 0.00 0.00 34 1011.2
20260509191009 81 249 1.0 1.0 0.00 0.00 0.00 40 1011.2
20260509190506 82 243 1.0 1.0 0.00 0.00 0.00 33 1011.1
20260509190005 82 271 2.0 3.0 0.00 0.00 0.00 38 1011.3
20260509185501 82 323 2.0 3.0 0.00 0.00 0.00 42 1011.3
20260509184958 81 215 1.0 1.0 0.00 0.00 0.00 42 1011.3
20260509184457 81 205 2.0 3.0 0.00 0.00 0.00 41 1011.2
20260509183953 81 268 1.0 1.0 0.00 0.00 0.00 43 1011.3
20260509183452 80 318 3.0 4.0 0.00 0.00 0.00 35 1011.3
20260509182949 81 297 2.0 3.0 0.00 0.00 0.00 48 1011.2
20260509182445 80 213 2.0 3.0 0.00 0.00 0.00 40 1011.3
20260509181943 80 235 4.0 4.0 0.00 0.00 0.00 35 1011.3
20260509181441 82 269 1.0 1.0 0.00 0.00 0.00 40 1011.5
20260509180939 81 279 1.0 1.0 0.00 0.00 0.00 42 1011.4